Theta_e
311 316 317 319 319 317 315 314 315 316 315 316 317 316 317 317 316 315 315 311 307 311 317 316 315 313 314 314 308 304 305 304 303 303 302 303 303 303 303 303 304 304 305 305 305 306 306 307 307 308 308 309 310 311 312 313 312 313 313 312 312 314 316 316 317 317 318 317 317 317 317 316 316 316 316 316 317 316 317 316 316 316 316 316 316 316
311 316 318 319 317 314 315 314 312 313 313 313 313 315 315 314 314 313 313 313 309 310 317 318 316 314 313 314 307 303 305 303 302 302 301 302 301 302 302 302 303 303 303 304 305 305 306 306 307 307 308 309 309 309 310 310 310 310 311 310 311 313 314 314 314 314 314 315 315 314 314 313 313 313 313 313 313 312 313 313 312 312 312 311 311 311
314 317 319 315 311 310 313 313 312 313 313 313 312 312 314 314 314 315 315 314 311 311 317 318 314 314 315 313 305 301 303 302 301 302 301 301 301 301 301 302 302 302 303 304 304 305 305 306 306 306 307 307 307 307 308 308 308 308 308 308 309 310 310 310 310 310 310 311 311 311 311 311 311 311 310 310 309 309 309 308 308 308 307 307 307 307
319 321 318 310 308 311 314 313 312 312 311 313 313 313 315 313 314 319 316 313 312 311 315 316 313 314 315 311 304 301 301 301 301 301 301 300 301 300 300 301 301 302 303 303 304 304 305 305 305 306 306 306 306 306 307 307 307 307 307 307 307 307 307 307 308 308 308 308 308 308 309 308 308 308 307 307 307 306 306 306 306 306 305 305 305 305
321 319 311 308 311 313 314 313 313 313 313 314 315 313 314 314 314 317 315 314 315 313 311 312 315 318 317 313 308 302 301 301 301 301 300 300 300 300 300 300 301 302 302 303 304 304 304 305 305 305 306 306 306 306 306 306 306 306 306 306 306 306 306 306 306 307 307 307 307 307 307 307 307 306 306 306 305 305 305 305 305 304 304 304 304 304
319 314 309 313 315 313 314 316 315 315 315 317 318 315 313 315 315 314 314 313 318 320 313 310 319 327 323 317 310 304 303 302 300 300 299 299 299 299 300 300 301 301 302 303 303 304 304 305 305 305 305 305 305 305 305 305 305 305 305 305 305 305 305 305 305 306 306 306 306 306 306 306 306 305 305 304 304 304 303 303 303 303 302 302 302 302
316 311 310 316 316 314 315 316 315 315 316 318 318 316 313 313 313 313 314 315 320 322 312 309 318 324 324 323 312 304 305 303 301 300 299 299 299 299 300 300 300 301 302 302 303 303 304 304 304 304 305 305 304 304 304 304 304 304 304 304 304 304 304 304 304 304 304 305 305 305 304 304 304 304 303 302 302 301 301 301 300 299 299 298 298 298
314 312 313 315 316 316 316 316 315 314 318 321 317 316 316 314 315 316 315 316 319 319 314 314 316 317 321 322 309 303 307 305 301 301 300 299 299 299 299 299 300 301 302 302 303 303 303 303 304 304 304 304 304 303 303 303 303 303 303 303 303 302 302 302 302 302 303 303 303 302 302 302 301 301 300 299 298 297 297 297 296 295 295 295 294 294
312 315 316 315 315 315 316 319 316 313 319 320 313 313 316 315 317 318 316 317 315 314 319 320 315 315 321 320 308 304 309 308 304 303 301 299 299 299 299 299 300 301 302 302 302 302 302 302 303 303 303 303 302 302 302 302 302 302 301 301 301 301 301 300 300 300 300 300 300 300 300 300 299 298 297 295 295 294 294 294 294 294 293 293 293 293
310 312 313 315 318 319 318 317 312 314 318 312 307 311 313 313 314 315 316 318 314 314 321 321 316 317 322 322 314 309 312 313 306 302 301 300 299 299 299 300 300 301 301 302 302 302 302 302 302 302 302 302 301 301 301 301 301 301 300 300 301 300 299 299 299 299 299 298 298 298 298 297 296 294 294 293 293 293 293 294 293 293 293 293 293 293
309 307 309 313 316 315 314 309 305 310 310 306 310 316 315 315 316 315 316 316 316 319 322 318 315 315 319 323 320 313 314 313 307 304 301 300 300 299 299 300 300 300 300 301 301 301 302 302 302 301 301 301 301 301 301 300 300 300 299 300 300 299 298 298 297 297 297 296 296 296 295 295 294 293 293 293 293 293 293 293 293 292 292 292 292 292
310 310 310 310 310 309 310 309 305 305 304 308 318 320 317 319 317 316 318 317 319 324 319 312 312 313 317 322 320 314 312 309 307 306 303 300 300 300 299 299 299 299 300 300 301 301 301 301 301 301 301 301 301 300 300 299 299 299 298 299 299 298 297 296 296 296 296 295 295 294 294 294 293 293 293 293 293 293 292 292 292 292 292 292 292 292
315 315 311 308 308 309 315 316 309 307 308 312 320 320 321 324 320 320 321 317 320 321 313 309 311 313 315 319 318 316 313 307 304 303 302 301 301 300 300 299 299 299 300 300 301 301 301 301 301 300 301 301 300 299 299 299 298 298 297 297 298 297 296 295 295 295 295 295 294 294 294 294 294 294 294 293 293 293 293 293 293 293 293 293 293 293
320 316 310 310 311 309 315 318 315 315 313 314 318 320 323 326 325 327 322 316 317 315 309 308 311 314 316 315 314 312 308 303 300 301 302 302 301 301 301 300 299 299 299 300 301 301 301 300 300 300 300 300 299 299 298 298 297 297 297 296 297 297 295 295 295 294 295 295 294 294 294 294 294 294 294 293 293 293 293 293 293 294 294 293 293 293
323 320 313 313 313 310 313 315 319 320 314 313 317 318 320 325 325 326 323 320 319 316 311 309 311 319 320 313 307 302 299 298 300 302 302 301 302 302 301 300 299 299 299 300 300 300 300 300 300 300 300 299 299 298 298 297 296 296 296 295 296 296 295 294 294 294 294 294 294 293 293 294 293 293 293 293 293 293 293 293 293 293 293 293 293 292
318 321 316 309 308 309 312 310 311 317 315 312 312 315 318 321 320 318 318 318 316 317 315 312 313 319 316 308 301 298 298 298 299 301 301 301 301 301 300 299 299 299 300 299 300 300 300 300 299 299 299 298 298 297 297 296 296 296 295 295 295 295 295 294 294 294 294 293 293 293 293 293 293 293 293 293 292 292 292 292 292 292 292 292 291 291
316 320 314 308 307 308 309 308 307 312 317 312 312 317 318 314 316 318 315 312 313 316 317 314 316 317 313 309 305 301 302 301 299 299 300 300 300 300 300 300 300 300 300 300 300 300 300 299 299 298 298 297 297 297 296 295 295 295 295 295 295 295 294 294 293 293 293 293 293 293 293 293 292 292 292 292 292 292 292 292 291 291 291 290 290 290
321 321 313 310 312 308 304 306 306 306 312 316 317 318 314 311 315 319 318 316 316 318 317 316 317 317 317 315 309 305 306 305 300 298 298 298 299 299 299 300 301 300 300 301 300 300 299 299 298 297 297 296 296 296 296 295 294 294 294 294 294 294 294 293 293 293 293 292 292 292 292 292 292 292 292 292 291 291 290 290 290 289 289 289 289 289
320 321 315 309 311 310 305 309 312 307 308 314 314 312 312 316 318 317 318 320 319 318 319 319 317 315 316 317 313 311 313 310 302 299 298 298 298 298 300 301 301 300 301 300 300 299 298 298 297 297 296 296 296 295 295 294 294 293 293 293 293 293 293 293 292 292 292 292 292 292 292 292 292 291 291 291 290 289 289 289 289 289 289 289 288 288
315 319 319 310 308 310 310 313 318 314 308 308 310 310 312 316 318 317 318 319 319 318 318 319 317 315 316 317 316 317 315 309 303 300 299 298 298 299 300 301 301 301 301 300 299 299 298 297 297 297 297 296 296 295 294 294 293 293 293 292 292 292 292 292 292 292 292 292 292 292 292 291 291 290 290 289 289 289 288 288 288 288 288 288 288 288
314 316 319 313 308 310 314 315 317 317 314 312 314 315 314 313 314 316 315 316 319 319 318 317 316 316 317 315 316 320 316 306 303 303 300 298 299 300 300 301 301 301 300 300 299 298 298 298 297 296 296 296 295 294 293 293 292 292 292 292 291 291 291 291 292 292 292 292 292 291 291 291 290 290 289 289 288 288 288 288 288 288 288 288 288 288
314 316 320 316 312 315 318 313 310 313 317 317 317 318 316 314 315 316 314 314 315 317 318 317 315 316 316 311 312 316 310 302 301 302 300 298 299 300 299 300 300 300 300 299 298 298 298 297 297 296 296 295 294 293 292 292 291 291 291 291 291 291 291 291 292 292 291 291 291 291 290 290 289 289 288 288 288 288 288 288 288 288 288 288 288 288
312 316 319 317 316 316 313 306 301 305 311 314 315 316 315 315 316 317 316 315 314 313 314 315 314 315 312 305 304 305 301 300 300 299 299 299 299 299 299 299 299 299 299 298 298 298 297 297 297 296 296 295 293 292 291 291 291 291 291 291 291 291 291 292 292 291 291 291 291 290 290 289 289 289 288 288 288 288 288 288 288 288 288 288 288 288
313 318 317 317 318 315 310 306 303 305 309 312 313 313 313 315 315 315 315 315 315 314 314 314 314 315 310 300 297 298 297 298 299 299 299 299 299 299 299 299 299 299 298 298 299 299 297 297 296 295 295 294 293 292 291 291 291 291 291 290 291 291 291 292 291 291 291 290 290 290 289 289 289 288 288 288 288 288 287 287 287 287 287 288 288 288
315 317 315 316 318 315 313 313 312 311 312 314 315 313 312 313 313 313 312 312 313 314 314 314 313 314 311 300 298 299 298 297 298 299 300 300 300 301 300 301 301 300 300 300 299 299 297 296 296 296 295 294 292 291 291 290 290 290 290 290 291 291 291 291 291 291 291 290 289 289 289 289 289 288 288 288 287 287 287 287 287 287 287 287 287 287
315 315 314 315 317 316 316 316 316 316 314 312 314 314 313 312 312 313 313 312 313 313 313 313 313 314 312 306 305 306 305 304 302 299 300 301 301 301 301 302 302 301 301 301 300 299 297 296 297 296 295 293 292 291 290 290 290 290 290 290 291 291 291 291 291 290 290 290 289 289 289 289 288 288 288 288 287 287 287 287 287 287 287 287 287 287
315 314 313 315 316 315 315 314 313 315 314 313 314 315 314 312 310 311 312 313 313 312 312 313 312 313 312 310 310 309 310 310 305 299 298 300 301 301 302 302 301 300 300 300 300 299 298 297 297 296 295 293 292 291 290 290 290 290 290 291 291 291 291 291 291 290 290 290 290 289 289 289 288 288 288 287 287 287 287 287 287 287 287 287 287 287
315 313 313 314 314 313 314 312 311 312 312 312 312 313 313 312 310 310 311 312 312 312 312 312 310 312 312 311 312 313 312 310 304 299 300 302 303 303 303 301 300 299 299 299 299 299 298 298 297 296 296 295 292 291 290 290 290 290 290 291 291 291 291 290 290 290 290 290 290 289 289 289 289 288 288 287 287 287 287 287 287 287 287 287 287 287
314 314 313 313 312 312 312 311 311 311 310 310 311 311 311 311 310 309 310 310 311 311 311 310 310 311 310 310 313 313 310 308 305 303 303 304 304 304 303 301 300 300 300 299 299 299 299 298 298 297 297 296 293 291 290 290 289 290 290 291 291 291 291 290 290 290 290 290 290 290 290 289 289 288 288 287 287 287 287 287 287 287 287 287 286 285
311 313 312 311 311 311 311 309 309 309 309 309 309 309 309 309 308 308 309 309 309 309 309 309 309 309 309 310 311 308 304 303 304 304 304 304 304 304 302 301 301 300 299 298 299 299 299 299 298 298 297 297 295 293 292 291 290 290 290 290 291 291 290 290 290 290 290 290 290 290 290 290 289 288 288 287 287 287 286 286 286 286 286 286 285 284
308 311 311 310 311 310 309 309 309 309 308 308 309 309 308 308 307 308 308 307 307 308 308 308 308 308 307 305 305 304 303 302 302 302 303 303 303 303 302 301 300 299 298 298 298 299 299 299 298 297 298 298 297 296 295 292 290 289 290 290 291 291 290 290 290 290 290 290 290 290 290 290 289 288 287 287 287 286 286 286 286 286 286 285 284 284
308 307 308 310 310 309 309 309 308 307 306 307 307 308 307 307 308 308 307 307 307 307 307 307 307 308 306 302 301 301 300 300 301 302 302 302 302 302 301 301 300 299 298 298 298 299 300 300 299 298 298 298 298 297 296 293 290 290 290 290 290 290 290 290 290 290 290 290 290 290 290 289 289 288 287 287 286 286 286 286 286 286 285 284 283 283
307 307 308 309 309 308 307 307 306 306 306 306 306 306 306 306 306 306 306 306 305 305 307 307 306 308 306 301 302 302 299 297 299 301 301 301 301 301 301 301 300 300 300 300 300 301 301 301 300 300 299 298 298 298 296 293 291 290 290 290 290 290 290 290 291 290 290 289 290 289 289 289 288 287 287 287 286 286 286 286 285 285 284 283 283 283
305 307 308 308 309 308 304 303 305 306 307 307 307 307 306 305 306 306 306 306 305 304 306 305 305 306 304 301 303 304 301 299 299 300 300 300 300 300 300 300 300 300 299 299 299 299 298 298 299 299 299 298 298 297 295 292 290 289 290 290 290 290 290 291 291 290 289 289 289 289 289 289 288 287 287 286 286 286 285 285 285 283 283 283 283 283
305 305 306 307 307 305 302 303 305 307 307 306 305 302 300 302 304 305 304 303 302 303 304 303 303 302 300 299 301 301 299 299 298 298 298 298 298 298 298 298 298 297 297 297 297 297 297 297 297 297 298 298 297 296 293 291 289 289 289 290 290 290 290 291 290 290 289 289 289 289 289 288 287 287 286 286 286 285 285 285 284 283 283 283 283 283
306 305 305 307 306 303 303 304 307 307 305 304 302 297 296 298 300 301 302 301 301 302 303 303 303 301 298 297 298 298 297 296 296 296 296 296 296 296 296 296 296 296 296 296 296 297 297 297 297 297 297 297 297 296 293 290 289 289 289 290 290 290 290 290 290 289 289 289 289 289 288 287 287 287 286 286 285 285 285 284 283 282 282 283 283 283
304 306 305 306 306 305 304 304 306 306 304 304 303 300 298 299 300 301 302 303 302 300 299 301 303 301 297 296 296 295 294 294 295 295 295 296 296 296 296 296 296 296 296 296 296 296 296 296 296 297 297 297 296 296 293 291 290 289 290 290 290 290 291 290 290 289 289 289 289 288 288 287 287 286 286 286 285 285 285 284 282 282 282 282 283 283
300 304 305 306 307 307 305 304 305 305 305 306 304 299 295 296 297 299 301 303 303 298 295 299 303 300 296 294 293 293 293 295 296 296 295 295 295 295 296 296 296 296 296 296 296 296 296 296 296 296 297 296 296 295 293 291 290 290 290 291 291 291 291 290 290 289 289 289 288 288 287 287 287 286 286 285 285 285 284 283 282 282 282 282 282 282
297 300 302 304 306 306 305 306 306 305 306 306 302 296 292 293 296 297 299 302 300 294 292 296 298 296 294 293 292 292 294 296 297 295 294 295 295 295 295 295 295 296 295 295 295 295 295 295 295 296 297 296 295 293 292 291 290 291 291 292 291 291 290 290 290 289 289 288 288 287 287 287 286 286 286 285 285 285 284 282 282 282 282 282 282 282
297 299 301 302 304 305 305 306 305 304 305 303 299 294 292 293 297 299 301 302 297 292 292 295 295 295 295 293 291 293 295 297 297 295 295 295 294 294 294 294 294 294 294 294 294 294 294 294 295 296 296 295 294 293 292 292 291 291 292 291 291 291 290 290 289 289 288 288 287 287 287 286 286 286 286 285 285 285 283 282 281 282 282 282 282 282
296 298 300 301 303 304 305 305 304 304 303 299 295 293 293 294 298 300 300 301 297 292 294 295 295 296 295 292 291 294 295 295 295 295 294 293 293 293 293 292 292 292 293 293 293 293 293 293 293 294 293 293 293 292 292 292 291 291 291 291 291 290 290 289 289 288 288 288 287 287 286 286 286 286 286 286 285 284 282 281 281 281 281 282 282 281
296 296 298 300 301 302 303 304 303 303 301 295 292 293 293 296 300 300 299 299 296 294 295 295 295 295 294 293 293 294 295 295 295 294 294 293 292 292 292 292 292 292 292 292 292 292 293 292 292 292 292 292 292 291 291 291 291 291 290 290 290 290 289 289 288 288 288 287 287 287 286 286 286 286 285 285 285 283 281 281 281 281 281 281 281 281
296 297 297 298 300 300 301 301 301 302 299 293 292 294 294 297 302 300 297 296 296 295 296 295 294 295 294 294 294 294 294 294 294 294 294 293 292 292 292 292 291 291 292 292 292 292 292 292 292 292 292 291 291 291 290 290 290 290 290 290 290 289 289 288 288 288 287 287 287 286 286 286 286 285 285 285 284 282 281 280 281 280 280 280 280 280
296 297 298 298 298 298 300 300 300 299 296 293 296 298 296 297 299 298 296 296 295 295 295 295 295 295 294 294 295 294 294 294 293 293 293 293 292 292 292 292 292 291 291 291 291 292 292 292 292 292 291 291 291 290 290 290 290 290 290 290 289 289 288 288 288 287 287 287 286 286 286 286 285 285 285 284 282 281 280 280 280 280 280 280 280 280
296 296 297 297 297 297 297 298 297 295 294 294 297 298 297 297 297 296 296 296 295 295 295 294 294 294 294 294 294 294 294 294 293 293 293 293 292 292 292 292 292 291 291 291 291 292 292 292 292 291 291 291 290 290 290 290 290 290 289 289 289 288 288 288 288 287 287 287 286 286 286 285 285 285 284 283 281 280 280 280 280 280 279 279 279 279
293 291 291 294 296 294 293 293 293 293 293 294 296 297 297 297 297 296 296 296 295 295 295 294 294 294 294 294 294 294 294 293 293 293 293 293 292 292 292 292 292 291 291 291 291 291 292 292 291 291 291 291 290 290 290 290 290 290 289 289 288 288 288 288 287 287 287 286 286 285 285 285 285 284 283 281 280 280 280 279 279 279 279 278 278 278
290 289 290 293 295 295 294 293 292 292 293 294 295 296 296 295 296 296 295 295 295 295 295 294 294 294 294 294 294 294 293 293 293 293 292 292 292 292 292 292 292 291 291 291 291 291 291 291 291 291 291 291 290 290 290 290 290 289 289 289 288 288 288 288 287 287 286 286 285 285 285 285 284 283 282 280 280 279 279 279 279 279 278 278 277 277
292 291 292 292 293 294 295 293 290 290 292 292 293 295 295 295 295 295 294 294 294 294 294 294 294 294 293 293 293 293 293 293 293 293 292 292 292 292 292 292 292 292 291 291 291 291 291 291 291 291 291 291 290 290 290 290 290 289 289 288 288 288 288 287 287 287 286 285 285 285 285 285 284 282 280 279 279 279 279 278 278 278 278 277 277 277
292 292 292 293 292 292 293 291 289 290 291 291 292 294 294 294 294 294 294 294 294 294 294 293 293 294 293 293 293 293 293 293 293 293 293 292 292 292 292 292 292 292 291 291 291 291 291 291 291 291 291 290 290 290 290 290 290 289 289 288 288 287 287 287 287 286 286 285 285 284 285 284 283 281 280 279 279 279 278 278 278 278 277 277 276 276
291 292 292 292 293 293 292 291 291 291 292 292 292 293 293 293 293 293 293 293 293 293 293 293 293 293 293 293 293 293 293 293 293 293 293 292 292 292 292 292 292 291 291 291 291 291 291 291 291 291 290 290 290 290 290 290 289 289 289 288 287 287 287 287 287 286 285 285 284 284 284 283 282 280 279 279 279 279 278 278 277 277 277 277 276 276
291 292 291 291 293 293 292 291 292 292 292 293 293 293 293 293 293 293 293 293 293 293 293 293 293 293 293 293 293 293 293 292 292 292 292 292 292 292 292 292 292 291 291 291 291 291 291 291 291 290 290 290 290 290 289 289 289 289 288 288 287 287 287 287 286 286 285 284 284 284 283 282 281 279 279 279 279 279 278 278 277 276 276 276 276 275
Wind_Speed
6 3 3 5 6 7 8 9 7 2 5 4 3 2 3 4 6 5 5 4 1 1 5 6 6 6 9 8 4 3 2 5 7 8 7 7 7 7 7 7 6 6 7 6 6 6 6 7 8 9 10 10 11 12 12 12 13 14 14 13 15 16 13 11 11 10 8 8 8 8 7 8 10 7 5 5 5 4 3 3 2 2 1 2 3 4
4 4 6 8 7 6 6 7 4 1 2 2 2 3 3 4 7 6 4 4 0 2 5 4 4 7 9 6 3 2 3 3 5 7 7 8 8 8 8 8 8 8 9 8 8 8 8 9 10 11 12 13 14 15 15 15 17 17 16 17 17 15 12 11 10 9 10 10 9 9 10 11 11 10 8 9 10 8 6 6 5 5 4 2 1 1
1 4 9 9 5 5 3 4 5 4 4 2 2 2 4 4 3 5 4 4 2 3 4 4 3 8 8 2 3 4 3 3 3 5 7 9 10 10 10 10 11 11 11 11 11 11 12 12 13 14 16 17 18 19 20 20 20 20 20 20 19 16 15 14 13 13 14 14 13 13 13 13 14 14 11 12 12 9 7 7 7 7 6 5 4 4
3 5 9 8 7 6 1 3 6 3 2 2 4 3 5 3 1 3 4 3 1 1 2 2 2 7 7 1 4 5 5 6 5 6 8 9 10 11 11 12 13 14 14 15 15 16 16 17 18 19 20 21 22 23 23 22 22 23 23 22 21 19 19 18 16 16 16 16 15 15 15 14 15 16 13 12 12 10 8 9 9 9 8 7 6 7
5 5 3 5 7 6 4 3 5 4 2 2 5 6 5 3 5 6 3 3 2 3 1 1 3 5 4 2 1 3 4 6 5 7 8 8 9 10 11 12 13 15 17 18 19 19 20 21 22 22 23 23 23 24 24 23 23 23 22 22 21 20 20 19 18 17 15 15 15 14 14 14 15 15 13 11 12 11 9 10 10 11 11 10 9 9
7 5 4 5 4 5 5 4 5 6 2 3 5 9 9 7 8 6 1 3 3 3 2 1 3 4 3 2 1 1 1 2 3 6 7 7 8 9 11 13 14 15 17 19 21 22 23 24 24 24 24 23 23 23 23 22 21 21 21 20 19 19 19 18 17 15 13 13 13 13 13 13 13 14 13 13 13 12 11 12 12 13 13 13 12 13
3 2 4 5 5 5 5 5 5 6 4 2 5 8 9 7 6 4 3 2 0 2 2 2 1 4 5 3 2 2 1 1 1 3 5 7 8 10 12 13 14 15 18 20 22 23 24 24 24 24 23 22 22 22 20 19 19 18 18 17 17 17 17 17 16 14 11 11 12 12 13 13 12 13 15 16 16 15 14 14 14 14 14 14 14 14
2 3 4 5 5 5 4 5 5 7 7 3 4 5 6 6 6 5 5 4 3 2 3 2 2 3 4 3 3 2 2 2 2 2 4 7 10 11 13 13 15 17 19 21 22 23 23 23 23 23 22 21 21 20 19 17 17 16 16 16 16 16 17 17 16 14 12 11 12 11 11 13 13 14 17 17 17 16 15 14 14 15 14 14 14 14
3 4 5 6 5 4 5 5 7 10 5 4 3 5 5 5 5 5 6 3 1 1 3 3 2 2 4 3 2 1 3 5 5 5 5 10 13 13 14 14 16 18 20 22 23 23 23 22 22 21 21 20 20 19 17 16 16 15 15 15 15 15 16 17 15 13 12 11 10 10 10 12 15 16 17 17 16 16 13 13 14 14 14 14 14 14
1 3 5 7 5 5 5 2 6 9 4 4 5 6 5 5 4 4 4 3 2 1 4 5 4 2 4 4 2 0 3 6 5 4 6 13 15 14 16 17 18 20 21 22 23 23 22 21 21 20 19 19 18 17 15 15 14 13 13 12 12 14 14 14 13 11 11 11 10 11 12 14 16 17 16 15 14 14 12 12 13 13 13 13 13 13
1 1 1 3 3 5 4 3 2 3 4 7 6 5 5 5 4 3 2 3 2 2 5 5 4 3 3 4 3 2 3 4 5 5 7 13 17 18 19 19 20 20 22 23 23 23 22 21 20 19 18 17 16 15 14 13 12 12 11 10 10 13 13 13 12 10 11 12 11 13 13 15 16 15 13 12 12 12 11 11 12 13 13 13 13 13
2 1 1 2 4 6 7 5 4 3 4 6 3 4 4 2 3 3 4 3 1 4 5 3 1 2 3 4 3 4 4 4 6 7 10 15 20 23 22 21 21 21 22 23 23 22 21 20 19 18 17 16 15 14 13 12 12 11 11 8 9 13 13 12 11 10 11 12 12 13 13 13 14 12 10 10 11 12 12 13 13 12 13 13 13 13
2 4 2 1 4 6 6 4 4 4 4 4 3 4 3 2 3 2 3 0 2 5 3 3 2 2 5 6 5 5 5 5 6 7 12 20 25 26 25 23 22 21 22 23 23 22 21 20 19 17 16 15 14 13 12 12 11 11 11 8 8 12 13 11 10 10 9 10 10 10 10 11 11 10 9 10 11 12 13 13 13 13 14 14 15 15
2 4 0 3 2 6 7 4 2 1 2 4 4 4 3 2 2 2 3 2 3 3 2 3 1 1 3 5 4 4 3 4 6 6 11 23 30 30 29 26 24 23 23 23 23 22 21 19 18 17 16 15 14 13 12 12 11 10 10 8 7 10 12 10 9 8 8 8 8 9 9 9 9 9 10 11 12 13 13 14 14 15 15 16 16 17
1 3 2 4 1 5 7 4 5 5 4 3 3 4 4 4 3 3 3 3 3 2 2 3 1 2 3 2 3 4 4 5 6 7 10 20 28 30 29 27 26 25 24 24 23 22 21 20 18 17 16 15 14 13 12 12 11 10 10 9 8 9 10 9 8 7 6 7 7 7 8 8 9 9 9 10 11 11 12 12 13 14 14 15 16 16
2 4 4 1 1 4 5 3 5 6 3 1 2 4 2 3 4 1 2 5 2 2 3 1 2 4 3 2 4 4 3 4 3 7 11 17 24 27 28 28 28 27 26 26 25 23 22 21 19 18 17 16 15 14 13 12 11 10 10 10 9 9 9 8 7 7 6 6 6 6 6 7 7 8 9 9 10 11 11 12 13 14 14 15 15 15
2 4 4 2 2 1 2 3 3 3 3 2 2 2 4 4 5 2 1 2 3 2 3 1 3 4 1 2 3 4 3 3 1 6 13 18 23 26 29 31 31 30 29 28 27 25 24 23 21 20 19 17 16 15 14 13 12 11 10 10 9 9 9 8 7 6 5 5 4 4 5 6 6 7 7 8 9 10 10 11 12 12 12 12 13 13
4 2 4 1 1 1 1 4 5 4 3 4 3 4 3 2 3 3 0 2 2 3 3 1 3 4 1 2 3 3 3 3 2 5 11 16 22 27 31 34 34 33 31 29 28 26 25 24 23 22 20 18 17 15 15 14 14 13 11 11 10 9 9 8 8 7 5 4 3 2 3 3 3 4 5 6 7 8 9 10 11 11 11 11 11 11
4 1 4 1 2 2 0 4 4 5 5 4 4 2 2 2 1 2 1 0 1 3 4 2 4 4 4 4 2 3 8 7 5 6 8 15 24 30 34 37 37 35 33 32 31 29 27 26 24 23 21 19 18 17 16 16 15 15 14 13 12 11 10 9 8 7 6 4 3 2 1 1 3 6 8 9 10 11 12 12 13 13 13 13 12 13
4 2 3 2 2 1 2 2 3 0 4 4 2 2 2 2 3 2 2 2 2 3 4 5 6 4 5 6 6 9 11 10 9 8 10 18 28 35 39 41 41 39 38 36 34 31 29 27 25 23 22 21 20 19 18 18 17 16 16 15 13 12 11 10 8 7 6 5 3 1 2 5 7 9 11 12 13 14 14 14 15 14 14 14 14 15
3 2 2 2 2 1 2 2 5 6 3 2 2 1 1 1 2 0 0 2 3 2 2 5 8 6 4 4 7 9 8 10 14 13 13 22 32 37 40 42 43 42 40 38 35 32 30 28 26 24 22 21 21 20 20 19 18 18 17 16 14 13 11 10 9 8 6 3 1 3 6 8 9 11 13 14 14 15 16 16 16 16 16 17 17 18
1 2 3 1 1 3 4 3 1 4 5 5 4 4 4 3 3 1 2 1 2 2 3 4 8 9 4 2 4 5 4 8 15 14 14 22 30 31 32 35 37 39 39 37 34 31 29 29 28 26 25 24 24 23 22 21 20 19 18 17 15 14 12 11 10 7 4 1 2 5 7 9 11 12 13 14 16 17 17 18 18 18 19 19 19 20
2 3 3 2 3 4 3 3 1 1 3 5 3 3 4 4 4 4 5 3 1 1 1 1 5 8 3 2 3 4 5 7 12 14 13 15 20 22 24 26 29 34 35 32 30 29 29 29 28 27 27 26 26 25 24 23 22 21 19 18 17 15 14 12 10 6 3 1 4 6 9 10 11 12 14 16 17 19 19 20 20 20 21 21 21 21
2 3 2 2 3 2 3 1 1 3 3 3 1 1 3 3 3 4 5 3 2 3 1 2 5 8 3 0 2 5 7 8 10 14 15 12 13 18 24 26 29 31 31 30 30 30 30 30 29 29 29 28 27 26 25 25 24 22 21 20 18 16 14 12 9 6 3 2 5 7 9 10 12 13 16 18 20 21 21 22 22 22 22 22 22 23
1 2 2 0 2 4 4 3 3 4 2 2 2 1 2 3 3 2 1 2 1 7 5 3 8 9 2 1 2 4 4 6 9 13 16 17 17 20 26 31 34 35 34 34 35 35 34 33 32 31 30 29 28 28 27 26 25 24 23 21 19 17 14 12 9 5 3 3 5 7 9 11 13 15 18 20 21 22 23 23 23 23 23 23 23 23
3 2 3 3 3 5 3 1 2 2 0 1 2 2 4 6 6 3 0 2 5 7 5 5 10 9 3 1 2 4 3 4 7 10 15 19 19 20 24 30 36 39 40 40 41 39 37 35 33 32 31 30 29 28 28 27 27 26 25 22 19 17 14 11 8 6 4 4 5 7 9 12 15 17 20 22 23 24 24 24 24 24 23 23 23 23
3 1 4 5 7 8 6 5 4 3 2 2 3 4 6 7 7 4 2 4 6 3 4 10 12 9 9 5 2 4 5 5 6 8 13 17 18 18 22 27 33 37 39 42 42 40 37 35 35 34 32 30 30 29 29 29 28 27 26 23 20 17 14 12 9 7 5 6 7 8 11 14 16 19 21 23 24 25 25 24 24 24 23 23 23 23
3 2 7 8 10 11 9 7 5 5 5 7 6 8 9 7 7 7 6 8 6 2 8 14 9 7 13 9 6 7 7 5 6 9 12 14 15 17 21 24 28 33 38 41 42 40 38 38 37 35 33 31 31 31 31 30 29 28 26 24 20 17 15 13 11 8 8 8 8 10 12 15 18 21 23 24 25 26 26 25 24 23 23 23 23 23
3 4 7 7 9 12 11 8 6 6 6 7 8 11 13 11 10 9 9 12 9 7 13 15 8 9 13 8 6 8 8 6 7 8 11 12 13 16 20 23 27 32 38 43 43 42 40 39 38 36 33 33 33 33 32 32 31 30 28 25 21 18 16 14 12 11 11 11 10 11 14 17 20 22 24 26 27 27 26 25 23 23 22 22 22 23
3 4 4 5 6 11 10 6 5 6 5 6 8 12 15 15 11 9 12 15 13 13 17 15 13 15 12 4 6 8 8 8 9 10 12 14 15 17 20 24 28 32 36 41 42 42 40 39 37 35 34 34 35 35 34 34 34 33 30 26 22 20 18 16 14 14 13 12 12 13 16 19 22 24 25 26 27 27 26 24 23 23 22 22 23 24
3 1 1 4 4 9 7 4 5 6 6 6 10 15 17 15 9 10 14 14 11 13 15 12 13 15 8 7 8 9 8 8 10 12 15 16 17 19 21 25 28 30 33 36 38 38 37 37 36 36 36 36 35 35 35 35 36 35 31 27 24 21 19 17 17 16 15 13 14 17 19 21 23 25 26 27 28 27 25 24 23 23 22 23 24 25
3 1 2 4 3 8 4 5 6 3 1 5 14 21 20 13 10 12 12 9 10 12 12 10 12 12 6 7 9 9 10 11 13 16 18 17 18 19 21 23 24 26 28 30 32 32 32 33 36 38 39 38 35 34 34 36 37 36 33 28 25 22 20 19 19 18 16 15 17 19 20 22 25 26 27 28 28 26 25 24 24 23 23 23 24 26
4 3 2 3 4 6 2 4 5 3 1 7 13 16 15 12 13 12 8 8 12 11 9 9 10 8 3 6 6 7 8 11 15 17 17 16 16 16 18 19 19 20 20 21 23 24 25 27 29 33 36 37 35 33 34 36 37 37 34 28 25 23 22 21 21 19 18 18 19 20 21 24 26 27 28 28 27 26 25 25 24 23 24 25 26 27
4 5 3 3 3 4 1 5 5 4 6 9 5 5 9 13 15 14 13 13 11 8 5 5 4 2 3 6 8 8 9 11 14 16 15 13 12 13 14 15 16 16 15 15 17 19 21 22 24 26 30 32 33 33 34 36 38 36 32 28 26 24 23 23 22 20 19 20 20 21 23 26 27 27 29 28 27 26 26 25 24 24 25 26 27 28
5 5 3 3 2 1 3 4 2 7 8 5 1 1 3 5 8 11 12 9 5 7 6 6 5 5 7 11 14 12 11 11 13 15 13 12 13 13 14 16 17 17 16 16 16 17 17 18 19 20 23 26 29 32 35 37 37 35 31 29 27 26 24 23 22 21 21 20 20 23 25 27 27 28 29 27 26 27 26 25 25 25 26 27 27 28
6 5 2 2 2 1 2 4 7 5 3 3 2 1 1 3 3 3 6 5 5 9 9 9 9 10 12 16 15 11 11 11 13 16 16 14 14 15 15 16 17 17 18 17 16 16 14 14 15 16 17 21 26 32 35 37 36 34 31 29 27 26 25 24 23 22 21 21 23 25 26 27 28 29 28 27 27 27 26 26 26 26 27 27 27 28
5 5 3 3 4 3 3 6 6 4 5 6 4 2 2 3 5 4 2 5 8 9 9 8 9 11 12 12 10 8 7 7 10 16 18 15 14 13 13 14 14 15 17 16 14 14 13 13 14 15 16 20 25 30 34 34 34 32 30 28 27 26 26 25 23 21 21 23 25 26 27 28 28 28 27 27 27 27 27 26 26 27 27 27 28 28
2 4 5 5 5 5 4 5 4 3 6 7 4 2 2 5 7 7 3 4 6 8 14 12 9 10 9 7 6 5 2 2 5 11 12 9 10 12 12 13 14 14 14 14 13 13 14 15 15 15 16 18 22 27 31 32 32 30 28 26 26 26 26 24 22 21 22 24 26 27 28 28 27 27 27 26 27 27 27 27 27 27 27 27 28 29
1 1 2 3 3 5 5 5 5 5 5 3 3 2 2 8 10 8 3 5 6 9 16 14 9 11 12 9 9 8 4 1 5 11 9 6 8 11 11 11 11 11 12 12 13 14 15 15 16 16 16 17 20 24 27 28 28 27 25 25 26 26 25 22 21 22 24 26 27 27 27 27 27 27 26 27 27 27 27 27 27 27 27 27 28 29
2 1 2 3 4 6 6 4 4 4 3 3 4 4 6 9 10 7 3 8 6 8 15 15 13 16 17 12 12 9 5 7 8 9 7 6 7 8 8 7 8 9 10 12 13 14 15 15 15 16 16 17 19 20 22 23 23 23 23 25 26 25 23 21 22 24 25 27 27 27 27 27 27 26 27 27 28 27 27 27 27 27 27 27 28 29
1 1 2 3 5 8 9 5 3 5 4 4 7 11 12 8 6 2 5 7 6 9 13 17 19 19 16 14 15 12 12 15 13 7 4 6 6 5 5 5 6 7 9 10 11 12 13 14 15 15 15 16 17 18 19 19 20 22 23 25 25 23 21 21 23 25 26 27 26 26 27 27 26 27 27 28 28 28 27 27 27 27 27 28 29 30
2 1 1 3 4 5 5 3 4 6 4 7 10 13 13 6 1 5 5 4 7 9 10 15 19 18 16 17 19 17 17 16 15 11 8 7 5 4 4 5 6 7 9 10 11 13 14 15 16 16 16 17 17 17 18 19 21 23 24 25 24 22 22 23 25 26 26 26 26 26 27 27 27 27 28 29 29 28 27 26 26 27 27 28 29 30
4 3 2 4 3 2 2 4 5 6 4 16 15 6 5 5 4 4 4 5 8 10 10 14 17 17 17 18 20 20 17 14 13 14 13 10 8 7 7 8 8 9 10 10 12 13 15 17 18 18 19 19 19 19 20 21 23 24 26 26 24 23 24 25 25 25 25 25 26 27 27 27 27 28 29 29 29 28 27 26 26 26 26 27 29 31
3 5 4 4 3 4 4 6 4 2 9 22 18 5 9 16 11 5 4 6 9 11 12 14 15 16 18 19 19 20 19 16 14 15 15 14 13 12 10 9 10 12 13 13 13 14 16 18 19 20 21 21 20 20 21 22 24 26 27 27 25 24 25 25 25 25 25 25 27 27 27 28 28 28 29 28 28 28 26 26 25 25 26 27 29 31
6 6 5 4 3 5 5 6 3 2 12 26 23 13 15 20 17 13 12 12 11 12 14 15 16 18 19 20 20 20 20 18 16 15 16 17 17 15 13 12 13 13 14 15 15 16 18 20 20 22 23 22 22 22 23 24 25 27 28 27 26 25 25 24 25 25 25 26 27 27 28 28 27 28 28 28 28 27 26 25 26 26 26 27 29 31
5 4 2 1 3 3 3 4 4 3 11 24 26 19 14 14 16 18 19 18 16 16 16 16 17 18 19 21 22 22 21 19 17 16 17 19 19 19 17 16 16 16 16 17 18 19 21 23 24 25 25 24 24 24 24 25 27 28 28 28 27 26 25 25 25 25 26 27 28 28 28 28 27 27 27 27 27 26 25 25 26 26 26 27 29 30
5 6 4 1 2 3 2 4 6 6 9 18 23 22 18 16 18 20 20 20 19 19 20 20 19 19 19 20 22 22 22 21 19 18 18 18 21 22 21 20 19 19 19 20 20 21 23 25 27 28 28 28 27 26 26 27 28 29 30 30 28 26 25 25 25 26 27 28 28 28 28 27 27 27 26 26 26 25 25 25 25 26 27 27 29 30
4 6 6 4 3 4 4 6 6 6 8 12 18 22 22 22 22 21 21 21 21 21 22 22 21 21 21 21 21 22 22 22 22 22 21 20 21 22 23 24 22 21 21 22 23 23 24 27 29 31 31 31 30 29 28 28 29 30 31 30 28 26 25 25 26 27 28 28 28 28 27 27 27 26 26 25 25 24 24 24 24 26 27 27 28 29
4 5 5 3 2 2 6 7 4 3 7 11 18 22 24 24 24 22 22 23 24 24 25 25 24 24 24 24 24 24 23 24 24 24 24 24 23 22 23 25 24 23 23 24 25 26 26 28 30 32 33 34 33 32 32 31 31 32 31 30 28 26 25 26 27 27 28 28 28 27 27 27 27 26 25 25 24 24 24 24 24 26 26 25 26 27
5 4 3 4 4 3 6 8 8 4 6 14 21 24 25 24 24 24 24 25 25 25 26 26 26 26 26 27 26 25 26 26 26 26 28 28 27 25 24 24 25 25 26 26 28 29 29 29 29 31 33 34 35 35 35 34 34 33 32 31 29 26 26 27 27 28 28 28 27 27 26 26 26 26 25 25 24 24 24 23 23 25 26 26 26 25
11 11 7 7 5 7 9 13 16 14 12 17 24 25 24 22 22 23 25 25 25 24 24 24 26 26 26 26 26 26 27 27 26 26 28 29 29 29 27 26 26 26 26 27 29 31 31 30 30 31 32 33 34 36 37 36 36 35 34 32 29 27 27 28 28 28 28 27 26 26 26 25 26 25 25 24 24 25 26 25 22 20 22 24 26 24
Wind_Direction
150 147 166 206 215 204 200 201 209 159 128 158 172 202 211 225 263 256 262 275 164 213 260 250 249 258 261 265 326 17 143 122 130 134 124 128 125 123 123 118 122 120 118 118 125 131 130 131 131 129 127 127 126 122 123 122 113 107 105 105 103 101 102 106 109 114 121 123 128 141 147 141 137 138 144 135 122 117 119 119 118 134 166 247 265 270
138 179 218 224 217 191 186 195 202 197 172 178 186 250 256 227 258 263 258 291 195 189 266 281 286 277 262 256 329 9 147 107 123 134 128 133 129 126 128 124 126 123 121 125 129 130 128 128 127 125 126 125 121 119 118 114 108 106 105 101 99 102 106 108 112 118 120 120 121 124 123 120 118 116 115 112 104 94 95 99 98 102 102 102 110 94
142 218 239 230 178 129 122 147 167 212 225 214 161 216 260 239 281 291 286 328 21 177 259 317 312 277 274 252 38 33 92 94 123 150 145 143 137 134 134 131 132 129 128 131 131 130 128 126 126 126 125 122 117 114 111 107 106 107 105 103 104 107 109 108 109 112 110 112 114 111 111 114 114 112 110 106 99 94 96 96 92 90 85 77 73 67
199 239 243 217 157 139 167 134 138 161 211 186 155 179 246 240 32 281 289 339 13 171 255 321 311 275 276 236 64 48 94 107 120 146 144 144 142 138 138 136 136 136 134 134 131 129 128 126 125 123 118 114 112 109 108 107 107 107 105 105 108 108 107 106 105 105 103 105 108 108 111 115 113 107 103 102 100 96 92 89 85 81 74 65 61 58
226 238 196 148 144 167 206 175 155 182 248 237 199 209 234 226 212 230 284 330 328 5 22 317 313 285 272 253 59 54 99 107 118 137 133 139 142 140 141 140 141 139 136 135 132 129 127 125 121 117 113 111 110 108 106 106 104 104 103 103 104 104 102 101 99 98 99 102 105 108 111 112 108 106 106 106 101 97 93 87 80 74 67 59 57 55
253 240 149 125 124 153 181 213 196 184 219 289 230 217 220 221 226 228 336 358 351 353 345 18 326 290 311 318 267 16 81 96 118 134 130 138 145 146 148 145 144 140 136 134 131 129 127 124 120 117 115 113 111 107 104 103 102 101 102 101 101 101 99 97 95 96 98 100 103 104 105 107 110 112 109 99 93 92 89 81 75 71 66 61 57 55
247 223 140 152 161 151 175 234 223 164 142 293 244 208 209 212 219 208 142 110 192 267 304 45 186 265 314 326 297 322 253 183 140 146 146 150 155 159 158 152 148 142 137 134 131 129 127 124 122 120 118 116 111 107 104 102 102 100 100 100 100 99 97 93 90 93 97 100 106 109 111 113 113 109 99 89 85 83 81 79 77 73 68 63 57 54
167 113 95 132 151 155 186 236 218 154 134 236 238 157 162 178 192 190 159 174 227 251 324 14 141 253 296 282 286 306 240 232 217 210 182 168 171 171 166 159 152 145 139 135 132 130 128 125 124 122 119 117 112 108 107 106 104 102 101 100 100 98 97 96 97 101 104 106 110 112 113 110 100 93 91 87 85 83 82 80 77 72 68 63 58 55
135 157 175 150 133 170 202 220 187 157 154 239 205 125 138 156 164 157 141 176 255 40 305 295 151 245 277 269 311 349 257 253 213 207 208 189 185 180 173 165 156 149 143 140 137 134 131 128 125 123 120 117 114 113 112 110 107 106 104 103 104 102 101 102 104 107 105 100 100 97 97 98 93 91 92 91 89 86 81 76 73 68 64 60 54 49
83 188 191 149 140 197 211 243 179 168 187 195 136 98 81 78 88 98 116 132 65 67 246 242 183 203 274 281 307 53 259 254 208 192 209 199 193 185 179 172 163 156 150 145 143 139 136 132 128 126 124 120 118 117 114 111 109 107 107 108 109 106 104 103 102 103 101 96 94 92 90 92 93 92 93 94 90 84 78 74 70 64 59 54 46 40
353 67 171 152 171 176 140 60 98 147 140 137 119 76 61 44 47 53 64 95 70 285 248 240 203 190 268 279 239 196 231 212 160 168 204 203 197 191 185 179 170 163 155 150 147 144 140 138 135 132 130 127 123 120 118 116 114 112 111 114 116 111 108 106 105 104 104 100 97 95 94 94 94 93 93 92 87 79 72 66 63 57 51 46 40 34
347 71 268 207 171 133 104 63 39 58 103 121 97 79 89 354 12 26 357 47 111 254 261 286 296 175 218 261 240 221 227 192 168 177 190 195 198 194 188 184 177 168 160 156 152 149 148 145 141 139 137 133 130 129 129 126 125 123 121 122 124 118 114 112 111 109 107 105 100 98 98 95 94 90 85 78 71 65 57 52 48 43 37 32 26 21
298 232 247 148 174 156 118 77 50 37 58 94 90 94 97 349 12 0 313 312 220 248 270 312 329 203 225 254 252 230 216 208 207 203 192 190 192 192 189 186 181 174 166 161 158 156 155 152 149 148 146 142 140 141 140 136 136 133 128 130 132 126 121 118 116 113 110 109 102 96 92 86 80 72 62 54 47 42 35 31 26 19 16 11 6 3
306 292 204 125 202 192 164 138 138 152 118 144 148 130 127 95 66 288 271 273 265 263 276 283 298 272 260 269 256 230 230 236 233 232 208 194 190 188 187 186 183 178 171 167 165 164 161 159 158 156 154 152 152 152 148 144 143 141 137 140 143 132 126 123 122 117 113 108 96 86 76 69 60 48 40 33 27 23 17 12 7 2 359 356 352 350
173 312 202 164 199 186 182 174 154 143 137 173 165 132 143 147 152 224 227 222 260 290 303 294 256 192 214 263 276 258 282 290 252 230 210 198 193 188 186 187 186 181 176 173 172 170 168 167 166 164 162 162 163 160 156 152 151 152 148 146 148 140 134 132 127 120 112 101 88 76 64 54 45 34 28 22 18 14 7 2 357 353 349 346 342 340
148 266 253 279 12 155 176 187 131 114 116 210 142 114 156 179 156 176 187 174 185 304 297 256 227 218 197 257 307 305 308 325 258 203 187 189 191 189 190 191 189 185 181 179 177 175 175 174 173 172 170 170 169 165 162 160 160 162 159 155 155 151 145 144 139 130 117 100 85 71 57 43 34 25 17 13 9 3 358 352 347 342 338 335 332 329
124 274 298 9 13 106 165 179 131 123 164 162 136 173 218 179 127 108 210 124 95 289 273 187 248 283 334 291 312 352 343 351 0 182 175 179 185 190 194 194 192 189 185 183 182 181 180 179 179 178 175 174 174 171 168 167 167 170 170 168 167 166 163 159 151 141 129 112 93 70 50 35 25 16 5 358 351 344 341 336 330 328 325 323 321 318
138 269 299 55 126 296 151 124 75 46 105 127 172 212 208 144 90 89 178 7 43 260 274 167 230 260 272 271 315 356 298 280 260 192 176 178 186 193 198 197 194 192 189 186 185 185 185 183 182 180 178 178 177 177 176 176 176 175 175 176 177 177 175 167 161 155 146 132 111 85 64 40 14 355 343 340 336 333 332 328 324 323 322 322 322 321
129 133 292 284 164 252 25 104 70 24 53 114 173 181 126 134 97 88 120 281 250 263 284 266 255 249 203 216 235 232 232 220 203 201 188 187 193 197 201 200 197 194 191 191 189 188 188 186 186 183 180 180 181 182 184 184 185 183 182 183 183 183 181 175 170 163 156 154 155 158 144 354 344 344 342 342 342 340 338 335 332 330 328 327 326 326
128 137 267 259 203 232 21 91 167 254 36 64 87 38 48 144 147 142 146 155 208 265 287 285 291 275 218 200 186 204 216 195 183 198 205 203 200 200 201 200 198 196 194 194 192 190 189 188 188 187 185 187 187 188 190 190 189 188 189 191 189 187 185 179 176 174 178 185 194 234 343 351 348 347 345 342 341 338 336 335 333 331 329 329 329 328
116 150 221 280 308 190 185 200 184 178 146 97 87 46 22 109 100 194 218 123 148 191 238 276 284 270 234 192 186 206 212 185 185 195 205 208 206 204 202 200 199 198 197 197 195 191 190 190 189 188 189 192 192 192 193 192 191 193 194 194 191 188 186 183 184 189 195 204 272 346 350 348 345 343 340 337 336 334 333 332 331 330 330 331 330 329
142 154 166 195 259 199 230 281 227 181 165 150 163 184 182 153 114 173 258 204 142 173 186 229 270 272 258 189 193 212 212 196 201 203 205 211 211 208 206 204 203 202 201 200 197 193 192 192 191 191 192 194 195 195 193 192 195 196 197 197 194 191 191 192 195 197 201 245 343 347 344 342 340 337 334 332 332 332 332 330 329 329 329 328 327 326
142 113 115 191 213 213 256 298 308 244 134 130 162 181 157 142 140 177 228 225 158 237 187 133 270 275 273 202 227 252 254 238 225 220 219 219 216 212 210 209 209 209 207 203 199 198 198 197 195 195 196 197 197 196 195 196 199 199 200 201 197 195 197 198 200 202 213 289 332 337 336 335 333 330 329 330 331 330 329 327 326 326 324 323 322 321
97 92 73 297 280 323 340 326 14 28 75 120 201 151 143 165 166 184 211 181 148 226 185 74 264 265 278 208 266 280 273 263 239 225 224 223 218 214 210 210 213 213 211 205 202 203 203 202 200 199 200 200 198 198 198 200 202 202 203 203 200 200 202 202 203 206 226 297 327 330 329 329 327 327 328 329 329 327 325 324 323 321 320 320 319 319
146 98 99 12 318 332 345 352 344 350 34 183 237 231 201 193 126 99 186 116 202 230 196 181 253 258 285 23 331 337 307 265 241 223 218 216 215 212 209 210 213 213 209 205 205 207 206 204 203 203 204 203 201 200 201 203 205 205 205 205 204 205 205 204 205 211 240 299 322 324 324 325 324 325 326 326 325 324 322 321 320 318 318 317 316 316
155 152 151 157 225 246 248 227 249 271 217 191 247 245 225 204 173 164 204 162 225 232 190 206 250 263 290 13 343 330 307 261 246 224 217 219 218 216 213 213 214 212 208 206 207 209 208 207 207 207 206 205 203 203 205 206 207 207 208 208 208 208 207 206 209 217 249 292 307 312 317 321 321 322 323 323 323 321 319 318 316 315 314 312 312 311
109 206 194 189 216 234 236 216 191 158 152 205 233 225 219 213 195 188 193 204 230 245 221 236 247 265 275 261 220 257 246 231 238 223 216 219 220 222 223 221 218 214 210 209 210 210 209 209 210 209 208 207 208 209 209 210 209 209 211 211 211 211 209 209 215 224 248 271 283 300 313 319 319 320 321 321 320 319 317 315 313 311 310 309 309 309
85 222 213 205 221 236 243 231 181 158 209 224 230 236 235 219 188 185 213 230 238 259 253 251 244 247 262 252 207 224 229 217 231 227 222 224 225 229 232 227 223 218 214 214 213 212 211 211 212 210 209 210 211 211 211 212 212 212 214 216 215 214 212 214 220 231 247 261 277 297 308 313 316 317 318 318 318 316 315 313 311 310 308 308 308 308
122 226 217 195 223 243 249 240 187 176 223 231 226 236 240 231 205 194 221 235 230 233 253 262 255 242 258 255 207 214 221 222 235 236 236 240 238 239 236 229 226 223 219 216 215 214 213 214 214 213 212 213 212 212 213 213 214 215 216 216 215 214 216 219 226 237 249 260 275 290 299 307 312 314 314 315 315 315 314 312 310 309 308 307 307 307
150 243 220 175 226 255 253 238 194 189 221 237 235 238 240 239 225 207 229 238 234 239 252 264 270 264 260 227 196 217 227 233 240 241 240 239 239 241 237 231 230 227 221 217 216 216 216 216 218 217 217 216 215 216 217 217 217 217 217 216 215 217 220 224 231 240 249 259 272 283 292 301 307 309 311 313 314 314 313 311 310 308 307 306 306 307
177 228 138 136 222 262 252 193 174 196 214 236 253 252 246 246 238 227 238 242 238 245 252 256 266 268 249 171 183 214 222 224 231 236 238 238 240 241 237 234 233 229 224 220 219 219 220 221 221 221 221 220 221 222 222 220 218 219 218 217 218 219 223 228 234 242 249 258 269 278 289 298 303 307 310 313 314 313 312 311 309 307 306 305 306 308
188 206 52 104 209 259 247 152 163 186 246 266 261 256 251 249 243 236 238 233 223 234 244 242 250 259 235 166 185 211 214 217 226 232 236 237 236 235 234 234 233 229 226 223 221 223 227 229 228 227 226 226 226 225 224 221 219 219 219 217 218 221 225 231 237 244 250 258 267 277 288 297 301 306 310 313 313 312 312 311 309 307 305 305 307 309
165 167 130 142 216 263 256 134 140 113 26 263 253 248 243 242 244 246 247 235 221 216 222 231 240 248 208 159 181 211 214 220 232 238 241 241 238 235 236 236 234 232 229 226 227 231 238 243 242 238 236 233 230 228 226 223 221 220 219 218 220 223 228 235 240 245 250 257 267 278 290 297 302 307 311 312 312 312 313 311 309 307 306 307 309 311
164 168 183 178 209 257 167 104 111 159 226 249 246 213 221 230 235 240 244 240 225 203 214 245 248 219 151 162 190 214 222 231 247 254 256 255 249 244 245 245 242 241 241 238 237 240 243 246 246 245 242 238 234 230 225 223 221 220 220 220 223 227 232 237 242 246 251 258 270 283 292 298 303 308 310 310 311 312 312 311 308 307 307 308 310 312
175 179 195 189 195 218 121 109 191 223 232 256 341 92 229 225 218 230 248 251 207 185 221 251 244 209 196 207 219 233 249 256 261 262 259 254 253 251 251 253 253 254 255 253 248 248 248 247 245 244 242 238 232 227 223 221 220 219 220 222 226 230 235 240 244 247 253 263 278 288 294 299 304 308 309 309 311 312 311 309 307 307 307 309 311 314
179 180 186 178 186 173 125 186 230 251 285 292 293 305 3 72 128 213 274 274 195 188 206 226 239 236 227 230 237 251 265 272 274 270 263 257 257 254 249 250 250 248 250 251 251 252 254 255 254 251 245 236 229 225 223 221 221 220 221 225 229 233 238 242 245 249 258 273 284 291 296 300 304 306 308 309 310 310 310 308 307 307 307 309 312 314
175 180 193 201 203 200 196 219 242 305 303 266 248 211 166 147 153 160 226 258 226 198 186 198 234 245 238 239 246 249 262 292 295 280 270 260 255 249 243 241 237 235 237 240 242 242 242 245 248 248 244 235 228 224 223 222 221 222 224 228 232 237 241 244 247 254 267 280 287 292 296 300 303 306 307 308 309 309 308 307 306 306 307 309 311 314
196 192 195 210 215 199 205 232 241 258 256 237 212 203 141 137 146 137 126 279 260 204 187 192 221 241 239 235 219 205 219 343 298 277 273 258 239 232 231 231 229 229 232 233 233 233 234 236 239 241 241 235 228 225 224 223 223 224 228 234 237 241 243 245 251 262 274 282 287 292 295 298 302 305 306 306 307 307 307 306 305 306 306 308 311 312
215 223 188 211 220 202 211 230 223 235 256 221 186 239 166 148 141 109 61 294 272 206 194 194 211 238 243 225 187 163 125 132 257 270 270 241 217 218 221 223 222 223 225 227 231 232 233 234 235 236 235 229 224 224 223 223 225 228 234 239 241 242 244 247 258 270 278 283 287 290 293 297 302 304 305 306 306 306 305 305 304 304 305 308 310 312
157 166 196 219 218 216 227 238 236 247 255 195 180 186 169 151 123 82 318 270 249 200 196 195 207 232 241 218 176 156 164 201 241 275 262 211 197 197 198 203 208 214 220 227 233 234 233 234 232 230 227 222 221 223 224 225 228 233 238 241 242 243 246 254 266 274 278 281 284 288 292 297 301 303 305 305 305 305 304 303 303 303 305 307 309 311
192 180 210 228 229 228 229 239 266 257 227 194 176 158 146 122 89 112 242 234 200 196 199 198 208 227 230 200 179 189 221 231 243 259 222 192 193 186 186 206 218 225 232 234 236 238 237 234 230 227 226 224 223 223 223 225 230 235 239 241 242 244 250 260 268 272 275 279 282 286 291 296 299 302 304 305 304 304 303 302 302 303 305 307 309 311
169 125 235 232 230 235 237 239 263 265 215 159 157 152 143 125 210 223 211 177 187 214 219 209 215 227 227 211 205 219 239 247 248 241 221 211 216 217 233 252 253 252 252 247 244 242 239 236 233 231 228 223 219 219 222 227 233 237 240 242 243 247 254 261 266 269 273 277 281 285 290 294 297 300 303 304 304 302 301 301 301 302 305 307 309 310
169 153 213 231 197 180 235 219 233 268 177 144 139 128 150 184 212 199 175 184 208 226 232 225 225 228 225 221 223 229 240 248 245 243 240 235 232 239 252 264 267 265 262 257 252 246 241 239 236 231 224 218 215 220 225 230 234 238 240 242 243 247 254 259 263 268 271 276 279 283 288 292 296 299 301 302 301 300 299 299 300 302 305 307 309 310
186 164 190 235 196 154 199 213 212 260 165 159 158 172 206 207 217 218 211 229 232 232 233 232 232 229 223 224 228 230 234 238 242 250 253 242 234 241 254 264 268 266 262 259 256 249 242 239 234 226 221 219 222 227 229 232 236 239 240 241 242 247 253 259 263 267 271 274 278 282 287 291 295 297 299 299 298 298 298 298 300 303 305 307 309 310
217 193 178 212 206 168 191 218 213 142 172 180 190 210 212 214 230 241 242 246 248 246 240 233 231 229 225 227 230 230 233 238 243 253 256 245 236 239 252 260 260 259 258 257 256 249 241 237 233 228 226 226 228 231 233 236 239 240 240 241 243 247 254 259 263 266 270 273 277 281 287 291 294 296 298 297 297 297 298 299 301 303 306 308 310 310
237 209 141 140 238 228 236 229 204 189 195 196 203 215 220 224 234 240 244 248 251 255 253 245 242 238 231 230 231 231 235 240 244 249 251 248 241 239 245 251 251 250 251 251 251 248 242 237 234 232 231 231 232 234 237 240 242 242 241 241 243 248 255 260 264 267 269 272 276 282 287 290 293 295 296 296 295 297 298 299 301 304 307 309 309 309
258 207 182 194 228 215 248 231 196 197 212 207 207 216 224 230 236 240 246 252 255 258 258 255 254 250 242 237 237 238 242 245 245 245 247 249 247 244 244 247 250 250 251 251 251 249 244 240 238 237 236 236 236 237 239 242 244 243 241 241 244 249 256 261 264 267 269 272 277 282 286 290 292 294 294 294 295 296 297 299 302 305 308 310 309 309
233 188 190 220 208 182 235 249 222 218 234 225 218 222 228 236 242 243 248 255 260 262 262 259 257 255 252 251 248 246 248 249 247 246 246 248 250 248 246 248 251 253 252 250 249 248 245 243 242 242 242 242 241 241 242 245 246 244 242 242 244 249 256 262 265 267 269 273 277 282 286 289 292 293 293 293 293 295 296 299 302 305 308 310 309 309
171 164 184 188 160 215 267 260 238 273 280 250 230 227 233 242 249 252 255 258 260 262 264 264 263 261 260 261 259 255 255 257 255 252 251 250 251 251 249 249 252 255 254 252 249 248 248 246 245 245 246 247 246 245 245 247 248 245 243 242 244 250 257 262 265 267 269 272 277 282 285 288 290 291 291 291 293 294 297 300 303 305 306 307 306 307
160 200 190 122 125 208 240 222 197 196 256 248 242 243 247 251 255 257 259 260 259 262 265 266 268 268 266 266 266 263 263 266 266 262 259 257 255 254 254 254 255 256 257 255 251 248 248 248 248 248 248 249 249 248 248 249 249 247 244 242 244 250 257 262 264 266 268 272 277 281 284 286 288 289 289 291 293 295 297 300 302 304 306 306 306 309
198 215 175 144 192 227 226 221 214 208 222 246 255 261 262 260 257 256 258 261 262 264 267 269 271 271 270 270 271 270 268 270 271 269 268 267 264 261 260 260 261 261 259 257 252 249 247 248 248 248 247 248 248 248 249 250 250 248 244 242 244 250 257 261 263 265 268 273 277 280 283 285 286 286 288 290 292 294 296 298 299 301 304 304 305 308